NORTHEAST SUFFOLK  -  Special Weather Statement Special Weather Statement        NORTHERN NASSAU  -  Special Weather Statement Special Weather Statement        NORTHWEST SUFFOLK  -  Special Weather Statement Special Weather Statement        SOUTHEAST SUFFOLK  -  Special Weather Statement Special Weather Statement        SOUTHERN NASSAU  -  Special Weather Statement Special Weather Statement        SOUTHWEST SUFFOLK  -  Special Weather Statement Special Weather Statement      

Active alerts

Northern Nassau
  Details for Northern Nassau Special Weather Statement
Southern Nassau
  Details for Southern Nassau Special Weather Statement
Northwest Suffolk
  Details for Northwest Suffolk Special Weather Statement
Southwest Suffolk
  Details for Southwest Suffolk Special Weather Statement
Northeast Suffolk
  Details for Northeast Suffolk Special Weather Statement
Southeast Suffolk
  Details for Southeast Suffolk Special Weather Statement


WXM80 ListenWXM80 Stop

You find our weather info also at:

UK Metoffice

WeatherCloud

Weather Underground

Northeastern Weather Network

AWEKAS

Citizen Weather Observer Program (CWOP)

HAMweather, WeatherForYou, PWS Weather


Weather Underground History page Text

Daily Summary for August 22, 2017 Units:  Both    English   Metric
« Previous Day
Next Day »
Daily Weekly Monthly Yearly Custom
  High: Low: Average:
Temperature: 92.4 °F /  33.6 °C 73.5 °F /  23.1 °C 80.5 °F /  26.9 °C
Dew Point: 79.7 °F /  26.5 °C 70.3 °F /  21.3 °C 74.5 °F /  23.6 °C
Humidity: 95 % 62 % 83 %
Wind Speed: 5.8 mph /  9.3 km/h - 1.8 mph /  2.9 km/h
Wind Gust: 15.0 mph /  24.1 km/h - -
Wind:- - SSW
Pressure: 30.04 in /  1017.2 hPa 29.69 in /  1005.3 hPa -
Precipitation: 0.06 in /  1.52 mm    
Historical Graphs
 
 
Tabular Data for August 22, 2017
Time Temperature Dew Point Pressure Wind Wind Speed Wind Gust Humidity Rainfall Rate (Hourly)
00:02 75.1 °F /  23.9 °C 71.3 °F /  21.8 °C 30.03 in /  1016.8 hPa SW 0.6 mph /  1 km/h 2.3 mph /  3.7 km/h 88 % 0.00 in /  0 mm
00:07 75.0 °F /  23.9 °C 71.2 °F /  21.8 °C 30.04 in /  1017.2 hPa WSW 1.6 mph /  2.6 km/h 3.5 mph /  5.6 km/h 88 % 0.00 in /  0 mm
00:12 75.0 °F /  23.9 °C 71.2 °F /  21.8 °C 30.04 in /  1017.2 hPa Calm     88 % 0.00 in /  0 mm
00:14 75.0 °F /  23.9 °C 71.2 °F /  21.8 °C 30.04 in /  1017.2 hPa Calm   1.2 mph /  1.9 km/h 88 % 0.00 in /  0 mm
00:19 74.9 °F /  23.8 °C 71.1 °F /  21.7 °C 30.04 in /  1017.2 hPa SW 2.0 mph /  3.2 km/h 4.6 mph /  7.4 km/h 88 % 0.00 in /  0 mm
00:24 74.9 °F /  23.8 °C 71.1 °F /  21.7 °C 30.04 in /  1017.2 hPa SSW 0.7 mph /  1.1 km/h 2.3 mph /  3.7 km/h 88 % 0.00 in /  0 mm
00:29 74.8 °F /  23.8 °C 71.0 °F /  21.7 °C 30.03 in /  1016.8 hPa WSW 0.6 mph /  1 km/h 3.5 mph /  5.6 km/h 88 % 0.00 in /  0 mm
00:34 74.8 °F /  23.8 °C 71.0 °F /  21.7 °C 30.03 in /  1016.8 hPa WSW 0.6 mph /  1 km/h 2.3 mph /  3.7 km/h 88 % 0.00 in /  0 mm
00:39 74.8 °F /  23.8 °C 71.0 °F /  21.7 °C 30.03 in /  1016.8 hPa WSW 0.3 mph /  0.5 km/h 2.3 mph /  3.7 km/h 88 % 0.00 in /  0 mm
00:44 74.7 °F /  23.7 °C 70.9 °F /  21.6 °C 30.03 in /  1016.8 hPa WSW 0.6 mph /  1 km/h 2.3 mph /  3.7 km/h 88 % 0.00 in /  0 mm
00:49 74.6 °F /  23.7 °C 70.8 °F /  21.6 °C 30.03 in /  1016.8 hPa WSW 0.7 mph /  1.1 km/h 3.5 mph /  5.6 km/h 88 % 0.00 in /  0 mm
00:54 74.6 °F /  23.7 °C 70.8 °F /  21.6 °C 30.03 in /  1016.8 hPa WSW 1.8 mph /  2.9 km/h 3.5 mph /  5.6 km/h 88 % 0.00 in /  0 mm
00:59 74.5 °F /  23.6 °C 70.7 °F /  21.5 °C 30.03 in /  1016.8 hPa Calm   2.3 mph /  3.7 km/h 88 % 0.00 in /  0 mm
01:04 74.4 °F /  23.6 °C 70.6 °F /  21.4 °C 30.02 in /  1016.5 hPa SW 0.9 mph /  1.4 km/h 3.5 mph /  5.6 km/h 88 % 0.00 in /  0 mm
01:09 74.4 °F /  23.6 °C 70.6 °F /  21.4 °C 30.02 in /  1016.5 hPa Calm   1.2 mph /  1.9 km/h 88 % 0.00 in /  0 mm
01:14 74.3 °F /  23.5 °C 70.5 °F /  21.4 °C 30.02 in /  1016.5 hPa WSW 0.2 mph /  0.3 km/h 1.2 mph /  1.9 km/h 88 % 0.00 in /  0 mm
01:20 74.3 °F /  23.5 °C 70.5 °F /  21.4 °C 30.02 in /  1016.5 hPa WSW 1.3 mph /  2.1 km/h 1.3 mph /  2.1 km/h 88 % 0.00 in /  0 mm
01:25 74.2 °F /  23.4 °C 70.4 °F /  21.3 °C 30.02 in /  1016.5 hPa WSW 1.3 mph /  2.1 km/h 2.3 mph /  3.7 km/h 88 % 0.00 in /  0 mm
01:30 74.2 °F /  23.4 °C 70.4 °F /  21.3 °C 30.02 in /  1016.5 hPa SW 0.6 mph /  1 km/h 2.3 mph /  3.7 km/h 88 % 0.00 in /  0 mm
01:35 74.1 °F /  23.4 °C 70.3 °F /  21.3 °C 30.02 in /  1016.5 hPa SW 0.5 mph /  0.8 km/h 2.3 mph /  3.7 km/h 88 % 0.00 in /  0 mm
01:40 74.1 °F /  23.4 °C 70.3 °F /  21.3 °C 30.02 in /  1016.5 hPa SW 0.1 mph /  0.2 km/h 1.2 mph /  1.9 km/h 88 % 0.00 in /  0 mm
01:45 74.1 °F /  23.4 °C 70.6 °F /  21.4 °C 30.02 in /  1016.5 hPa Calm   1.0 mph /  1.6 km/h 89 % 0.00 in /  0 mm
01:50 74.0 °F /  23.3 °C 70.6 °F /  21.4 °C 30.01 in /  1016.1 hPa SW 1.3 mph /  2.1 km/h 3.5 mph /  5.6 km/h 89 % 0.00 in /  0 mm
01:55 74.0 °F /  23.3 °C 70.6 °F /  21.4 °C 30.01 in /  1016.1 hPa SSW 1.0 mph /  1.6 km/h 3.5 mph /  5.6 km/h 89 % 0.00 in /  0 mm
02:00 74.0 °F /  23.3 °C 70.6 °F /  21.4 °C 30.01 in /  1016.1 hPa SW 1.2 mph /  1.9 km/h 3.5 mph /  5.6 km/h 89 % 0.00 in /  0 mm
02:05 74.0 °F /  23.3 °C 70.6 °F /  21.4 °C 30.01 in /  1016.1 hPa SSW 1.1 mph /  1.8 km/h 3.5 mph /  5.6 km/h 89 % 0.00 in /  0 mm
02:10 73.9 °F /  23.3 °C 70.5 °F /  21.4 °C 30.01 in /  1016.1 hPa WSW 1.4 mph /  2.3 km/h 4.6 mph /  7.4 km/h 89 % 0.00 in /  0 mm
02:15 73.9 °F /  23.3 °C 70.5 °F /  21.4 °C 30.00 in /  1015.8 hPa SSW 2.4 mph /  3.9 km/h 3.5 mph /  5.6 km/h 89 % 0.00 in /  0 mm
02:20 73.9 °F /  23.3 °C 70.5 °F /  21.4 °C 30.00 in /  1015.8 hPa West 0.4 mph /  0.6 km/h 1.2 mph /  1.9 km/h 89 % 0.00 in /  0 mm
02:25 73.9 °F /  23.3 °C 70.5 °F /  21.4 °C 30.00 in /  1015.8 hPa West 0.2 mph /  0.3 km/h 2.3 mph /  3.7 km/h 89 % 0.00 in /  0 mm
02:31 73.9 °F /  23.3 °C 70.8 °F /  21.6 °C 30.00 in /  1015.8 hPa Calm   2.0 mph /  3.2 km/h 90 % 0.00 in /  0 mm
02:36 73.9 °F /  23.3 °C 70.8 °F /  21.6 °C 29.99 in /  1015.5 hPa Calm   1.0 mph /  1.6 km/h 90 % 0.00 in /  0 mm
02:41 73.9 °F /  23.3 °C 70.8 °F /  21.6 °C 29.99 in /  1015.5 hPa Calm   3.0 mph /  4.8 km/h 90 % 0.00 in /  0 mm
02:46 73.9 °F /  23.3 °C 70.8 °F /  21.6 °C 30.00 in /  1015.8 hPa West 1.0 mph /  1.6 km/h 3.0 mph /  4.8 km/h 90 % 0.00 in /  0 mm
02:51 73.8 °F /  23.2 °C 70.7 °F /  21.5 °C 30.00 in /  1015.8 hPa WSW 2.0 mph /  3.2 km/h 3.0 mph /  4.8 km/h 90 % 0.00 in /  0 mm
02:56 73.8 °F /  23.2 °C 70.7 °F /  21.5 °C 30.00 in /  1015.8 hPa SW 1.0 mph /  1.6 km/h 3.0 mph /  4.8 km/h 90 % 0.00 in /  0 mm
03:01 73.8 °F /  23.2 °C 70.7 °F /  21.5 °C 30.00 in /  1015.8 hPa SW 1.1 mph /  1.8 km/h 2.0 mph /  3.2 km/h 90 % 0.00 in /  0 mm
03:06 73.8 °F /  23.2 °C 71.0 °F /  21.7 °C 30.00 in /  1015.8 hPa SW 1.1 mph /  1.8 km/h 2.3 mph /  3.7 km/h 91 % 0.00 in /  0 mm
03:11 73.7 °F /  23.2 °C 70.9 °F /  21.6 °C 29.99 in /  1015.5 hPa Calm     91 % 0.00 in /  0 mm
03:16 73.7 °F /  23.2 °C 70.9 °F /  21.6 °C 29.99 in /  1015.5 hPa SW 0.7 mph /  1.1 km/h 2.3 mph /  3.7 km/h 91 % 0.00 in /  0 mm
03:21 73.7 °F /  23.2 °C 70.9 °F /  21.6 °C 29.99 in /  1015.5 hPa SW 0.9 mph /  1.4 km/h 2.3 mph /  3.7 km/h 91 % 0.00 in /  0 mm
03:26 73.7 °F /  23.2 °C 70.9 °F /  21.6 °C 29.99 in /  1015.5 hPa SSW 0.8 mph /  1.3 km/h 3.0 mph /  4.8 km/h 91 % 0.00 in /  0 mm
03:31 73.7 °F /  23.2 °C 70.9 °F /  21.6 °C 29.99 in /  1015.5 hPa SW 1.9 mph /  3.1 km/h 4.0 mph /  6.4 km/h 91 % 0.00 in /  0 mm
03:36 73.7 °F /  23.2 °C 71.2 °F /  21.8 °C 29.98 in /  1015.1 hPa SW 0.9 mph /  1.4 km/h 2.0 mph /  3.2 km/h 92 % 0.00 in /  0 mm
03:41 73.7 °F /  23.2 °C 71.2 °F /  21.8 °C 29.98 in /  1015.1 hPa SSW 0.4 mph /  0.6 km/h 2.3 mph /  3.7 km/h 92 % 0.00 in /  0 mm
03:46 73.7 °F /  23.2 °C 71.2 °F /  21.8 °C 29.98 in /  1015.1 hPa SW 1.2 mph /  1.9 km/h 2.0 mph /  3.2 km/h 92 % 0.00 in /  0 mm
03:48 73.7 °F /  23.2 °C 71.2 °F /  21.8 °C 29.98 in /  1015.1 hPa WSW 1.6 mph /  2.6 km/h 3.5 mph /  5.6 km/h 92 % 0.00 in /  0 mm
03:53 73.7 °F /  23.2 °C 71.2 °F /  21.8 °C 29.98 in /  1015.1 hPa SW 1.9 mph /  3.1 km/h 3.5 mph /  5.6 km/h 92 % 0.00 in /  0 mm
03:58 73.7 °F /  23.2 °C 71.2 °F /  21.8 °C 29.98 in /  1015.1 hPa SW 0.6 mph /  1 km/h 3.5 mph /  5.6 km/h 92 % 0.00 in /  0 mm
04:03 73.6 °F /  23.1 °C 71.1 °F /  21.7 °C 29.98 in /  1015.1 hPa SW 1.4 mph /  2.3 km/h 3.5 mph /  5.6 km/h 92 % 0.00 in /  0 mm
04:08 73.6 °F /  23.1 °C 71.1 °F /  21.7 °C 29.98 in /  1015.1 hPa SSW 2.5 mph /  4 km/h 3.5 mph /  5.6 km/h 92 % 0.00 in /  0 mm
04:13 73.6 °F /  23.1 °C 71.4 °F /  21.9 °C 29.98 in /  1015.1 hPa SW 0.6 mph /  1 km/h 2.3 mph /  3.7 km/h 93 % 0.00 in /  0 mm
04:18 73.6 °F /  23.1 °C 71.4 °F /  21.9 °C 29.97 in /  1014.8 hPa South 1.2 mph /  1.9 km/h 3.5 mph /  5.6 km/h 93 % 0.00 in /  0 mm
04:23 73.6 °F /  23.1 °C 71.4 °F /  21.9 °C 29.98 in /  1015.1 hPa West 0.3 mph /  0.5 km/h 3.5 mph /  5.6 km/h 93 % 0.00 in /  0 mm
04:28 73.6 °F /  23.1 °C 71.4 °F /  21.9 °C 29.97 in /  1014.8 hPa WSW 1.2 mph /  1.9 km/h 3.5 mph /  5.6 km/h 93 % 0.00 in /  0 mm
04:33 73.6 °F /  23.1 °C 71.4 °F /  21.9 °C 29.97 in /  1014.8 hPa Calm   1.2 mph /  1.9 km/h 93 % 0.00 in /  0 mm
04:38 73.6 °F /  23.1 °C 71.4 °F /  21.9 °C 29.97 in /  1014.8 hPa WSW 0.3 mph /  0.5 km/h 1.2 mph /  1.9 km/h 93 % 0.00 in /  0 mm
04:43 73.5 °F /  23.1 °C 71.4 °F /  21.9 °C 29.97 in /  1014.8 hPa West 0.4 mph /  0.6 km/h 1.2 mph /  1.9 km/h 93 % 0.00 in /  0 mm
04:48 73.5 °F /  23.1 °C 71.4 °F /  21.9 °C 29.97 in /  1014.8 hPa West 0.3 mph /  0.5 km/h 1.2 mph /  1.9 km/h 93 % 0.00 in /  0 mm
04:53 73.5 °F /  23.1 °C 71.4 °F /  21.9 °C 29.97 in /  1014.8 hPa Calm     93 % 0.00 in /  0 mm
04:58 73.5 °F /  23.1 °C 71.7 °F /  22.1 °C 29.97 in /  1014.8 hPa SW 0.5 mph /  0.8 km/h 2.0 mph /  3.2 km/h 94 % 0.00 in /  0 mm
05:03 73.6 °F /  23.1 °C 71.8 °F /  22.1 °C 29.97 in /  1014.8 hPa WSW 0.5 mph /  0.8 km/h 4.0 mph /  6.4 km/h 94 % 0.00 in /  0 mm
05:08 73.6 °F /  23.1 °C 71.8 °F /  22.1 °C 29.98 in /  1015.1 hPa WSW 1.1 mph /  1.8 km/h 3.5 mph /  5.6 km/h 94 % 0.00 in /  0 mm
05:13 73.6 °F /  23.1 °C 71.8 °F /  22.1 °C 29.98 in /  1015.1 hPa Calm   1.2 mph /  1.9 km/h 94 % 0.00 in /  0 mm
05:18 73.6 °F /  23.1 °C 71.8 °F /  22.1 °C 29.98 in /  1015.1 hPa WSW 0.2 mph /  0.3 km/h 1.2 mph /  1.9 km/h 94 % 0.00 in /  0 mm
05:23 73.6 °F /  23.1 °C 71.8 °F /  22.1 °C 29.97 in /  1014.8 hPa SW 0.6 mph /  1 km/h 3.0 mph /  4.8 km/h 94 % 0.00 in /  0 mm
05:28 73.6 °F /  23.1 °C 71.8 °F /  22.1 °C 29.97 in /  1014.8 hPa SW 0.3 mph /  0.5 km/h 2.3 mph /  3.7 km/h 94 % 0.00 in /  0 mm
05:34 73.7 °F /  23.2 °C 71.9 °F /  22.2 °C 29.97 in /  1014.8 hPa Calm   1.2 mph /  1.9 km/h 94 % 0.00 in /  0 mm
05:39 73.6 °F /  23.1 °C 71.8 °F /  22.1 °C 29.97 in /  1014.8 hPa WSW 0.4 mph /  0.6 km/h 2.3 mph /  3.7 km/h 94 % 0.00 in /  0 mm
05:44 73.6 °F /  23.1 °C 71.8 °F /  22.1 °C 29.97 in /  1014.8 hPa WSW 0.5 mph /  0.8 km/h 2.3 mph /  3.7 km/h 94 % 0.00 in /  0 mm
05:49 73.6 °F /  23.1 °C 71.8 °F /  22.1 °C 29.97 in /  1014.8 hPa SSW 1.3 mph /  2.1 km/h 3.5 mph /  5.6 km/h 94 % 0.00 in /  0 mm
05:54 73.6 °F /  23.1 °C 71.8 °F /  22.1 °C 29.97 in /  1014.8 hPa SSW 0.1 mph /  0.2 km/h 1.2 mph /  1.9 km/h 94 % 0.00 in /  0 mm
05:59 73.6 °F /  23.1 °C 71.8 °F /  22.1 °C 29.97 in /  1014.8 hPa Calm   1.0 mph /  1.6 km/h 94 % 0.00 in /  0 mm
06:04 73.6 °F /  23.1 °C 71.8 °F /  22.1 °C 29.97 in /  1014.8 hPa Calm     94 % 0.00 in /  0 mm
06:09 73.6 °F /  23.1 °C 71.8 °F /  22.1 °C 29.97 in /  1014.8 hPa Calm     94 % 0.00 in /  0 mm
06:14 73.5 °F /  23.1 °C 71.7 °F /  22.1 °C 29.97 in /  1014.8 hPa SW 0.3 mph /  0.5 km/h 2.3 mph /  3.7 km/h 94 % 0.00 in /  0 mm
06:19 73.5 °F /  23.1 °C 71.7 °F /  22.1 °C 29.97 in /  1014.8 hPa SW 0.8 mph /  1.3 km/h 3.5 mph /  5.6 km/h 94 % 0.00 in /  0 mm
06:24 73.5 °F /  23.1 °C 71.7 °F /  22.1 °C 29.97 in /  1014.8 hPa WSW 0.1 mph /  0.2 km/h 2.3 mph /  3.7 km/h 94 % 0.00 in /  0 mm
06:29 73.5 °F /  23.1 °C 72.0 °F /  22.2 °C 29.97 in /  1014.8 hPa WSW 0.1 mph /  0.2 km/h 1.2 mph /  1.9 km/h 95 % 0.00 in /  0 mm
06:34 73.6 °F /  23.1 °C 72.1 °F /  22.3 °C 29.97 in /  1014.8 hPa Calm     95 % 0.00 in /  0 mm
06:39 73.6 °F /  23.1 °C 72.1 °F /  22.3 °C 29.97 in /  1014.8 hPa Calm   1.0 mph /  1.6 km/h 95 % 0.00 in /  0 mm
06:44 73.6 °F /  23.1 °C 72.1 °F /  22.3 °C 29.98 in /  1015.1 hPa SW 1.3 mph /  2.1 km/h 3.0 mph /  4.8 km/h 95 % 0.00 in /  0 mm
06:49 73.6 °F /  23.1 °C 72.1 °F /  22.3 °C 29.98 in /  1015.1 hPa SW 1.0 mph /  1.6 km/h 1.2 mph /  1.9 km/h 95 % 0.00 in /  0 mm
06:54 73.7 °F /  23.2 °C 72.2 °F /  22.3 °C 29.97 in /  1014.8 hPa Calm   1.2 mph /  1.9 km/h 95 % 0.00 in /  0 mm
06:59 73.7 °F /  23.2 °C 72.2 °F /  22.3 °C 29.97 in /  1014.8 hPa SW 1.0 mph /  1.6 km/h 2.0 mph /  3.2 km/h 95 % 0.00 in /  0 mm
07:04 73.8 °F /  23.2 °C 72.3 °F /  22.4 °C 29.97 in /  1014.8 hPa SSW 2.5 mph /  4 km/h 3.0 mph /  4.8 km/h 95 % 0.00 in /  0 mm
07:09 73.8 °F /  23.2 °C 72.3 °F /  22.4 °C 29.97 in /  1014.8 hPa SSW 1.2 mph /  1.9 km/h 2.0 mph /  3.2 km/h 95 % 0.00 in /  0 mm
07:14 73.9 °F /  23.3 °C 72.4 °F /  22.4 °C 29.97 in /  1014.8 hPa Calm   2.3 mph /  3.7 km/h 95 % 0.00 in /  0 mm
07:19 74.0 °F /  23.3 °C 72.5 °F /  22.5 °C 29.97 in /  1014.8 hPa West 1.4 mph /  2.3 km/h 2.3 mph /  3.7 km/h 95 % 0.00 in /  0 mm
07:24 74.0 °F /  23.3 °C 72.5 °F /  22.5 °C 29.97 in /  1014.8 hPa SW 0.6 mph /  1 km/h 2.3 mph /  3.7 km/h 95 % 0.00 in /  0 mm
07:29 74.1 °F /  23.4 °C 72.6 °F /  22.6 °C 29.97 in /  1014.8 hPa SW 1.1 mph /  1.8 km/h 1.2 mph /  1.9 km/h 95 % 0.00 in /  0 mm
07:34 74.2 °F /  23.4 °C 72.7 °F /  22.6 °C 29.97 in /  1014.8 hPa SW 0.2 mph /  0.3 km/h   95 % 0.00 in /  0 mm
07:40 74.3 °F /  23.5 °C 72.8 °F /  22.7 °C 29.97 in /  1014.8 hPa SW 0.7 mph /  1.1 km/h 2.3 mph /  3.7 km/h 95 % 0.00 in /  0 mm
07:45 74.5 °F /  23.6 °C 73.0 °F /  22.8 °C 29.97 in /  1014.8 hPa SSW 1.7 mph /  2.7 km/h 3.5 mph /  5.6 km/h 95 % 0.00 in /  0 mm
07:50 74.6 °F /  23.7 °C 73.1 °F /  22.8 °C 29.96 in /  1014.4 hPa South 0.1 mph /  0.2 km/h 2.3 mph /  3.7 km/h 95 % 0.00 in /  0 mm
07:55 74.8 °F /  23.8 °C 73.3 °F /  22.9 °C 29.96 in /  1014.4 hPa Calm   1.2 mph /  1.9 km/h 95 % 0.00 in /  0 mm
08:00 75.0 °F /  23.9 °C 73.5 °F /  23.1 °C 29.96 in /  1014.4 hPa South 0.4 mph /  0.6 km/h 1.2 mph /  1.9 km/h 95 % 0.00 in /  0 mm
08:05 75.1 °F /  23.9 °C 73.6 °F /  23.1 °C 29.96 in /  1014.4 hPa SW 1.1 mph /  1.8 km/h 3.5 mph /  5.6 km/h 95 % 0.00 in /  0 mm
08:10 75.3 °F /  24.1 °C 73.5 °F /  23.1 °C 29.96 in /  1014.4 hPa SW 2.2 mph /  3.5 km/h 4.6 mph /  7.4 km/h 94 % 0.00 in /  0 mm
08:15 75.5 °F /  24.2 °C 73.7 °F /  23.2 °C 29.96 in /  1014.4 hPa SW 2.2 mph /  3.5 km/h 3.5 mph /  5.6 km/h 94 % 0.00 in /  0 mm
08:20 75.7 °F /  24.3 °C 73.8 °F /  23.2 °C 29.97 in /  1014.8 hPa SSW 1.4 mph /  2.3 km/h 6.9 mph /  11.1 km/h 94 % 0.00 in /  0 mm
08:25 75.9 °F /  24.4 °C 74.0 °F /  23.3 °C 29.96 in /  1014.4 hPa WSW 1.3 mph /  2.1 km/h 3.5 mph /  5.6 km/h 94 % 0.00 in /  0 mm
08:30 76.1 °F /  24.5 °C 73.9 °F /  23.3 °C 29.96 in /  1014.4 hPa WSW 1.5 mph /  2.4 km/h 5.0 mph /  8 km/h 93 % 0.00 in /  0 mm
08:35 76.3 °F /  24.6 °C 74.1 °F /  23.4 °C 29.96 in /  1014.4 hPa SSW 1.5 mph /  2.4 km/h 3.5 mph /  5.6 km/h 93 % 0.00 in /  0 mm
08:40 76.5 °F /  24.7 °C 74.3 °F /  23.5 °C 29.95 in /  1014.1 hPa SW 1.1 mph /  1.8 km/h 4.0 mph /  6.4 km/h 93 % 0.00 in /  0 mm
08:45 76.7 °F /  24.8 °C 74.2 °F /  23.4 °C 29.95 in /  1014.1 hPa SW 1.4 mph /  2.3 km/h 3.5 mph /  5.6 km/h 92 % 0.00 in /  0 mm
08:50 77.0 °F /  25 °C 74.5 °F /  23.6 °C 29.95 in /  1014.1 hPa SW 1.8 mph /  2.9 km/h 5.8 mph /  9.3 km/h 92 % 0.00 in /  0 mm
08:56 77.3 °F /  25.2 °C 74.5 °F /  23.6 °C 29.95 in /  1014.1 hPa SW 1.3 mph /  2.1 km/h 3.5 mph /  5.6 km/h 91 % 0.00 in /  0 mm
09:01 77.6 °F /  25.3 °C 74.8 °F /  23.8 °C 29.95 in /  1014.1 hPa WSW 3.6 mph /  5.8 km/h 5.8 mph /  9.3 km/h 91 % 0.00 in /  0 mm
09:06 77.8 °F /  25.4 °C 74.6 °F /  23.7 °C 29.94 in /  1013.8 hPa South 0.1 mph /  0.2 km/h 3.5 mph /  5.6 km/h 90 % 0.00 in /  0 mm
09:11 78.0 °F /  25.6 °C 74.5 °F /  23.6 °C 29.95 in /  1014.1 hPa WSW 0.6 mph /  1 km/h 1.2 mph /  1.9 km/h 89 % 0.00 in /  0 mm
09:16 78.3 °F /  25.7 °C 74.8 °F /  23.8 °C 29.95 in /  1014.1 hPa SW 0.5 mph /  0.8 km/h 2.3 mph /  3.7 km/h 89 % 0.00 in /  0 mm
09:21 78.6 °F /  25.9 °C 74.7 °F /  23.7 °C 29.95 in /  1014.1 hPa SSE 0.4 mph /  0.6 km/h 1.2 mph /  1.9 km/h 88 % 0.00 in /  0 mm
09:26 78.9 °F /  26.1 °C 75.0 °F /  23.9 °C 29.95 in /  1014.1 hPa SE 1.5 mph /  2.4 km/h 3.5 mph /  5.6 km/h 88 % 0.00 in /  0 mm
09:31 79.2 °F /  26.2 °C 75.0 °F /  23.9 °C 29.94 in /  1013.8 hPa West 3.2 mph /  5.1 km/h 5.8 mph /  9.3 km/h 87 % 0.00 in /  0 mm
09:36 79.4 °F /  26.3 °C 75.2 °F /  24 °C 29.94 in /  1013.8 hPa SW 0.8 mph /  1.3 km/h 3.5 mph /  5.6 km/h 87 % 0.00 in /  0 mm
09:41 79.7 °F /  26.5 °C 75.1 °F /  23.9 °C 29.94 in /  1013.8 hPa SW 1.6 mph /  2.6 km/h 3.5 mph /  5.6 km/h 86 % 0.00 in /  0 mm
09:46 80.1 °F /  26.7 °C 75.5 °F /  24.2 °C 29.94 in /  1013.8 hPa SSW 2.7 mph /  4.3 km/h 5.8 mph /  9.3 km/h 86 % 0.00 in /  0 mm
09:51 80.5 °F /  26.9 °C 75.9 °F /  24.4 °C 29.94 in /  1013.8 hPa SSW 0.4 mph /  0.6 km/h 2.3 mph /  3.7 km/h 86 % 0.00 in /  0 mm
09:56 81.0 °F /  27.2 °C 75.7 °F /  24.3 °C 29.94 in /  1013.8 hPa ESE 0.4 mph /  0.6 km/h 2.3 mph /  3.7 km/h 84 % 0.00 in /  0 mm
10:01 81.6 °F /  27.6 °C 75.6 °F /  24.2 °C 29.94 in /  1013.8 hPa SE 0.4 mph /  0.6 km/h 3.5 mph /  5.6 km/h 82 % 0.00 in /  0 mm
10:06 82.0 °F /  27.8 °C 75.6 °F /  24.2 °C 29.94 in /  1013.8 hPa SSE 1.7 mph /  2.7 km/h 4.6 mph /  7.4 km/h 81 % 0.00 in /  0 mm
10:11 82.4 °F /  28 °C 76.0 °F /  24.4 °C 29.94 in /  1013.8 hPa West 0.9 mph /  1.4 km/h 3.5 mph /  5.6 km/h 81 % 0.00 in /  0 mm
10:16 82.5 °F /  28.1 °C 76.1 °F /  24.5 °C 29.94 in /  1013.8 hPa South 1.2 mph /  1.9 km/h 3.5 mph /  5.6 km/h 81 % 0.00 in /  0 mm
10:21 82.7 °F /  28.2 °C 75.9 °F /  24.4 °C 29.93 in /  1013.4 hPa South 1.3 mph /  2.1 km/h 3.5 mph /  5.6 km/h 80 % 0.00 in /  0 mm
10:26 82.9 °F /  28.3 °C 76.5 °F /  24.7 °C 29.93 in /  1013.4 hPa WSW 0.1 mph /  0.2 km/h 2.0 mph /  3.2 km/h 81 % 0.00 in /  0 mm
10:31 83.1 °F /  28.4 °C 76.3 °F /  24.6 °C 29.93 in /  1013.4 hPa WSW 3.2 mph /  5.1 km/h 5.8 mph /  9.3 km/h 80 % 0.00 in /  0 mm
10:36 83.3 °F /  28.5 °C 76.1 °F /  24.5 °C 29.93 in /  1013.4 hPa SW 3.3 mph /  5.3 km/h 5.0 mph /  8 km/h 79 % 0.00 in /  0 mm
10:41 83.6 °F /  28.7 °C 75.6 °F /  24.2 °C 29.93 in /  1013.4 hPa SE 0.6 mph /  1 km/h 5.0 mph /  8 km/h 77 % 0.00 in /  0 mm
10:46 84.0 °F /  28.9 °C 76.0 °F /  24.4 °C 29.93 in /  1013.4 hPa South 1.2 mph /  1.9 km/h 3.5 mph /  5.6 km/h 77 % 0.00 in /  0 mm
10:51 84.3 °F /  29.1 °C 76.3 °F /  24.6 °C 29.93 in /  1013.4 hPa SW 0.6 mph /  1 km/h 3.5 mph /  5.6 km/h 77 % 0.00 in /  0 mm
10:56 84.7 °F /  29.3 °C 76.7 °F /  24.8 °C 29.93 in /  1013.4 hPa SW 1.3 mph /  2.1 km/h 3.5 mph /  5.6 km/h 77 % 0.00 in /  0 mm
11:01 85.1 °F /  29.5 °C 76.3 °F /  24.6 °C 29.93 in /  1013.4 hPa SSE 2.1 mph /  3.4 km/h 4.6 mph /  7.4 km/h 75 % 0.00 in /  0 mm
11:06 85.6 °F /  29.8 °C 76.8 °F /  24.9 °C 29.93 in /  1013.4 hPa WSW 2.8 mph /  4.5 km/h 4.0 mph /  6.4 km/h 75 % 0.00 in /  0 mm
11:11 86.3 °F /  30.2 °C 77.8 °F /  25.4 °C 29.92 in /  1013.1 hPa WSW 1.1 mph /  1.8 km/h 4.0 mph /  6.4 km/h 76 % 0.00 in /  0 mm
11:16 86.7 °F /  30.4 °C 77.0 °F /  25 °C 29.92 in /  1013.1 hPa WSW 1.0 mph /  1.6 km/h 4.6 mph /  7.4 km/h 73 % 0.00 in /  0 mm
11:21 87.0 °F /  30.6 °C 77.3 °F /  25.2 °C 29.92 in /  1013.1 hPa SSW 1.0 mph /  1.6 km/h 2.3 mph /  3.7 km/h 73 % 0.00 in /  0 mm
11:26 87.4 °F /  30.8 °C 76.8 °F /  24.9 °C 29.92 in /  1013.1 hPa SW 0.7 mph /  1.1 km/h 5.0 mph /  8 km/h 71 % 0.00 in /  0 mm
11:31 87.9 °F /  31.1 °C 77.7 °F /  25.4 °C 29.92 in /  1013.1 hPa South 3.0 mph /  4.8 km/h 6.9 mph /  11.1 km/h 72 % 0.00 in /  0 mm
11:36 87.9 °F /  31.1 °C 76.9 °F /  24.9 °C 29.92 in /  1013.1 hPa SSW 3.7 mph /  6 km/h 5.0 mph /  8 km/h 70 % 0.00 in /  0 mm
11:41 88.1 °F /  31.2 °C 76.6 °F /  24.8 °C 29.92 in /  1013.1 hPa SW 1.1 mph /  1.8 km/h 6.9 mph /  11.1 km/h 69 % 0.00 in /  0 mm
11:46 88.2 °F /  31.2 °C 77.2 °F /  25.1 °C 29.92 in /  1013.1 hPa SSW 2.9 mph /  4.7 km/h 6.9 mph /  11.1 km/h 70 % 0.00 in /  0 mm
11:51 88.5 °F /  31.4 °C 77.0 °F /  25 °C 29.91 in /  1012.8 hPa SW 2.8 mph /  4.5 km/h 5.8 mph /  9.3 km/h 69 % 0.00 in /  0 mm
11:57 88.9 °F /  31.6 °C 78.3 °F /  25.7 °C 29.91 in /  1012.8 hPa SSW 0.6 mph /  1 km/h 1.2 mph /  1.9 km/h 71 % 0.00 in /  0 mm
12:02 89.1 °F /  31.7 °C 76.7 °F /  24.8 °C 29.91 in /  1012.8 hPa SSW 2.3 mph /  3.7 km/h 4.6 mph /  7.4 km/h 67 % 0.00 in /  0 mm
12:07 89.2 °F /  31.8 °C 76.8 °F /  24.9 °C 29.91 in /  1012.8 hPa SW 5.1 mph /  8.2 km/h 12.7 mph /  20.4 km/h 67 % 0.00 in /  0 mm
12:12 89.4 °F /  31.9 °C 77.4 °F /  25.2 °C 29.91 in /  1012.8 hPa SSW 2.2 mph /  3.5 km/h 4.6 mph /  7.4 km/h 68 % 0.00 in /  0 mm
12:17 89.4 °F /  31.9 °C 77.0 °F /  25 °C 29.90 in /  1012.4 hPa SSE 1.5 mph /  2.4 km/h 4.6 mph /  7.4 km/h 67 % 0.00 in /  0 mm
12:22 89.5 °F /  31.9 °C 77.1 °F /  25.1 °C 29.90 in /  1012.4 hPa SW 0.7 mph /  1.1 km/h 2.3 mph /  3.7 km/h 67 % 0.00 in /  0 mm
12:27 89.4 °F /  31.9 °C 77.0 °F /  25 °C 29.89 in /  1012.1 hPa SE 2.0 mph /  3.2 km/h 4.6 mph /  7.4 km/h 67 % 0.00 in /  0 mm
12:32 88.9 °F /  31.6 °C 76.1 °F /  24.5 °C 29.89 in /  1012.1 hPa SE 1.1 mph /  1.8 km/h 3.5 mph /  5.6 km/h 66 % 0.00 in /  0 mm
12:37 89.1 °F /  31.7 °C 77.6 °F /  25.3 °C 29.89 in /  1012.1 hPa WSW 2.2 mph /  3.5 km/h 6.0 mph /  9.7 km/h 69 % 0.00 in /  0 mm
12:42 89.5 °F /  31.9 °C 76.6 °F /  24.8 °C 29.89 in /  1012.1 hPa WSW 2.5 mph /  4 km/h 5.8 mph /  9.3 km/h 66 % 0.00 in /  0 mm
12:47 89.9 °F /  32.2 °C 77.5 °F /  25.3 °C 29.89 in /  1012.1 hPa WSW 4.0 mph /  6.4 km/h 6.0 mph /  9.7 km/h 67 % 0.00 in /  0 mm
12:52 90.1 °F /  32.3 °C 78.1 °F /  25.6 °C 29.89 in /  1012.1 hPa SW 1.7 mph /  2.7 km/h 3.5 mph /  5.6 km/h 68 % 0.00 in /  0 mm
12:57 90.5 °F /  32.5 °C 77.6 °F /  25.3 °C 29.89 in /  1012.1 hPa WSW 4.5 mph /  7.2 km/h 8.0 mph /  12.9 km/h 66 % 0.00 in /  0 mm
13:02 90.8 °F /  32.7 °C 77.4 °F /  25.2 °C 29.88 in /  1011.7 hPa SSW 1.8 mph /  2.9 km/h 3.5 mph /  5.6 km/h 65 % 0.00 in /  0 mm
13:07 91.0 °F /  32.8 °C 77.1 °F /  25.1 °C 29.88 in /  1011.7 hPa SW 3.6 mph /  5.8 km/h 4.6 mph /  7.4 km/h 64 % 0.00 in /  0 mm
13:12 91.5 °F /  33.1 °C 79.0 °F /  26.1 °C 29.88 in /  1011.7 hPa WSW 0.3 mph /  0.5 km/h 1.2 mph /  1.9 km/h 67 % 0.00 in /  0 mm
13:17 91.8 °F /  33.2 °C 78.4 °F /  25.8 °C 29.88 in /  1011.7 hPa SW 0.1 mph /  0.2 km/h 2.3 mph /  3.7 km/h 65 % 0.00 in /  0 mm
13:22 92.2 °F /  33.4 °C 78.3 °F /  25.7 °C 29.87 in /  1011.4 hPa South 2.1 mph /  3.4 km/h 4.0 mph /  6.4 km/h 64 % 0.00 in /  0 mm
13:27 92.3 °F /  33.5 °C 77.4 °F /  25.2 °C 29.87 in /  1011.4 hPa SE 0.8 mph /  1.3 km/h 3.5 mph /  5.6 km/h 62 % 0.00 in /  0 mm
13:32 92.4 °F /  33.6 °C 78.0 °F /  25.6 °C 29.87 in /  1011.4 hPa South 1.2 mph /  1.9 km/h 3.5 mph /  5.6 km/h 63 % 0.00 in /  0 mm
13:37 92.1 °F /  33.4 °C 77.7 °F /  25.4 °C 29.87 in /  1011.4 hPa SSW 2.0 mph /  3.2 km/h 3.5 mph /  5.6 km/h 63 % 0.00 in /  0 mm
13:42 91.8 °F /  33.2 °C 77.4 °F /  25.2 °C 29.86 in /  1011.1 hPa SE 0.3 mph /  0.5 km/h 1.2 mph /  1.9 km/h 63 % 0.00 in /  0 mm
13:47 91.4 °F /  33 °C 78.0 °F /  25.6 °C 29.87 in /  1011.4 hPa SSW 1.4 mph /  2.3 km/h 4.0 mph /  6.4 km/h 65 % 0.00 in /  0 mm
13:53 91.4 °F /  33 °C 78.4 °F /  25.8 °C 29.86 in /  1011.1 hPa West 2.3 mph /  3.7 km/h 4.0 mph /  6.4 km/h 66 % 0.00 in /  0 mm
13:58 91.5 °F /  33.1 °C 77.6 °F /  25.3 °C 29.86 in /  1011.1 hPa SSE 2.9 mph /  4.7 km/h 6.9 mph /  11.1 km/h 64 % 0.00 in /  0 mm
14:03 91.5 °F /  33.1 °C 79.0 °F /  26.1 °C 29.86 in /  1011.1 hPa WSW 2.5 mph /  4 km/h 5.8 mph /  9.3 km/h 67 % 0.00 in /  0 mm
14:08 91.8 °F /  33.2 °C 79.7 °F /  26.5 °C 29.86 in /  1011.1 hPa SE 0.8 mph /  1.3 km/h 3.5 mph /  5.6 km/h 68 % 0.00 in /  0 mm
14:13 91.4 °F /  33 °C 78.4 °F /  25.8 °C 29.85 in /  1010.7 hPa SSW 4.3 mph /  6.9 km/h 9.2 mph /  14.8 km/h 66 % 0.00 in /  0 mm
14:18 90.9 °F /  32.7 °C 78.4 °F /  25.8 °C 29.85 in /  1010.7 hPa South 2.9 mph /  4.7 km/h 5.8 mph /  9.3 km/h 67 % 0.00 in /  0 mm
14:28 90.2 °F /  32.3 °C 77.8 °F /  25.4 °C 29.84 in /  1010.4 hPa South 4.8 mph /  7.7 km/h 11.5 mph /  18.5 km/h 67 % 0.00 in /  0 mm
14:33 89.7 °F /  32.1 °C 77.3 °F /  25.2 °C 29.84 in /  1010.4 hPa SSE 1.4 mph /  2.3 km/h 4.6 mph /  7.4 km/h 67 % 0.00 in /  0 mm
14:38 89.4 °F /  31.9 °C 77.4 °F /  25.2 °C 29.84 in /  1010.4 hPa South 0.9 mph /  1.4 km/h 8.1 mph /  13 km/h 68 % 0.00 in /  0 mm
14:43 89.2 °F /  31.8 °C 77.7 °F /  25.4 °C 29.83 in /  1010 hPa SSE 3.9 mph /  6.3 km/h 8.1 mph /  13 km/h 69 % 0.00 in /  0 mm
14:48 89.0 °F /  31.7 °C 77.5 °F /  25.3 °C 29.84 in /  1010.4 hPa SSE 4.7 mph /  7.6 km/h 10.4 mph /  16.7 km/h 69 % 0.00 in /  0 mm
14:53 88.7 °F /  31.5 °C 77.7 °F /  25.4 °C 29.83 in /  1010 hPa SSE 3.5 mph /  5.6 km/h 5.0 mph /  8 km/h 70 % 0.00 in /  0 mm
15:03 89.0 °F /  31.7 °C 77.9 °F /  25.5 °C 29.82 in /  1009.7 hPa SE 1.1 mph /  1.8 km/h 3.5 mph /  5.6 km/h 70 % 0.00 in /  0 mm
15:08 89.0 °F /  31.7 °C 77.5 °F /  25.3 °C 29.83 in /  1010 hPa South 1.5 mph /  2.4 km/h 3.5 mph /  5.6 km/h 69 % 0.00 in /  0 mm
15:13 89.1 °F /  31.7 °C 78.0 °F /  25.6 °C 29.82 in /  1009.7 hPa SSE 1.3 mph /  2.1 km/h 4.0 mph /  6.4 km/h 70 % 0.00 in /  0 mm
15:18 89.1 °F /  31.7 °C 78.5 °F /  25.8 °C 29.82 in /  1009.7 hPa SSE 2.1 mph /  3.4 km/h 3.5 mph /  5.6 km/h 71 % 0.00 in /  0 mm
15:24 89.2 °F /  31.8 °C 78.1 °F /  25.6 °C 29.82 in /  1009.7 hPa South 2.3 mph /  3.7 km/h 5.8 mph /  9.3 km/h 70 % 0.00 in /  0 mm
15:29 89.3 °F /  31.8 °C 78.2 °F /  25.7 °C 29.81 in /  1009.4 hPa ESE 0.5 mph /  0.8 km/h 5.8 mph /  9.3 km/h 70 % 0.00 in /  0 mm
15:34 89.5 °F /  31.9 °C 78.4 °F /  25.8 °C 29.81 in /  1009.4 hPa South 3.3 mph /  5.3 km/h 7.0 mph /  11.3 km/h 70 % 0.00 in /  0 mm
15:39 89.6 °F /  32 °C 78.9 °F /  26.1 °C 29.81 in /  1009.4 hPa SSE 2.6 mph /  4.2 km/h 4.6 mph /  7.4 km/h 71 % 0.00 in /  0 mm
15:44 89.6 °F /  32 °C 78.5 °F /  25.8 °C 29.80 in /  1009 hPa SW 2.2 mph /  3.5 km/h 3.5 mph /  5.6 km/h 70 % 0.00 in /  0 mm
15:49 89.6 °F /  32 °C 78.5 °F /  25.8 °C 29.80 in /  1009 hPa SSE 5.8 mph /  9.3 km/h 11.5 mph /  18.5 km/h 70 % 0.00 in /  0 mm
15:54 89.3 °F /  31.8 °C 78.2 °F /  25.7 °C 29.80 in /  1009 hPa South 2.4 mph /  3.9 km/h 6.0 mph /  9.7 km/h 70 % 0.00 in /  0 mm
15:59 89.3 °F /  31.8 °C 78.7 °F /  25.9 °C 29.79 in /  1008.7 hPa SW 3.7 mph /  6 km/h 9.2 mph /  14.8 km/h 71 % 0.00 in /  0 mm
16:04 89.5 °F /  31.9 °C 78.4 °F /  25.8 °C 29.79 in /  1008.7 hPa South 3.2 mph /  5.1 km/h 6.9 mph /  11.1 km/h 70 % 0.00 in /  0 mm
16:09 89.5 °F /  31.9 °C 78.4 °F /  25.8 °C 29.79 in /  1008.7 hPa SW 3.1 mph /  5 km/h 5.8 mph /  9.3 km/h 70 % 0.00 in /  0 mm
16:14 89.4 °F /  31.9 °C 78.3 °F /  25.7 °C 29.79 in /  1008.7 hPa WSW 1.7 mph /  2.7 km/h 4.6 mph /  7.4 km/h 70 % 0.00 in /  0 mm
16:19 89.0 °F /  31.7 °C 77.9 °F /  25.5 °C 29.79 in /  1008.7 hPa SSW 1.3 mph /  2.1 km/h 4.6 mph /  7.4 km/h 70 % 0.00 in /  0 mm
16:24 88.8 °F /  31.6 °C 78.2 °F /  25.7 °C 29.79 in /  1008.7 hPa SSW 1.8 mph /  2.9 km/h 3.5 mph /  5.6 km/h 71 % 0.00 in /  0 mm
16:29 88.4 °F /  31.3 °C 77.4 °F /  25.2 °C 29.78 in /  1008.4 hPa SE 2.4 mph /  3.9 km/h 8.1 mph /  13 km/h 70 % 0.00 in /  0 mm
16:34 88.0 °F /  31.1 °C 77.4 °F /  25.2 °C 29.78 in /  1008.4 hPa SSW 2.1 mph /  3.4 km/h 4.0 mph /  6.4 km/h 71 % 0.00 in /  0 mm
16:39 87.6 °F /  30.9 °C 77.9 °F /  25.5 °C 29.78 in /  1008.4 hPa SSE 1.9 mph /  3.1 km/h 7.0 mph /  11.3 km/h 73 % 0.00 in /  0 mm
16:44 87.6 °F /  30.9 °C 77.9 °F /  25.5 °C 29.78 in /  1008.4 hPa SSW 2.3 mph /  3.7 km/h 5.8 mph /  9.3 km/h 73 % 0.00 in /  0 mm
16:49 87.6 °F /  30.9 °C 77.9 °F /  25.5 °C 29.78 in /  1008.4 hPa SSE 3.0 mph /  4.8 km/h 8.1 mph /  13 km/h 73 % 0.00 in /  0 mm
16:54 87.2 °F /  30.7 °C 77.5 °F /  25.3 °C 29.78 in /  1008.4 hPa SSE 3.7 mph /  6 km/h 5.8 mph /  9.3 km/h 73 % 0.00 in /  0 mm
16:59 86.8 °F /  30.4 °C 77.5 °F /  25.3 °C 29.77 in /  1008 hPa SSE 1.6 mph /  2.6 km/h 4.6 mph /  7.4 km/h 74 % 0.00 in /  0 mm
17:04 86.6 °F /  30.3 °C 77.7 °F /  25.4 °C 29.77 in /  1008 hPa SW 3.5 mph /  5.6 km/h 5.8 mph /  9.3 km/h 75 % 0.00 in /  0 mm
17:09 86.5 °F /  30.3 °C 77.2 °F /  25.1 °C 29.77 in /  1008 hPa SSW 2.0 mph /  3.2 km/h 6.0 mph /  9.7 km/h 74 % 0.00 in /  0 mm
17:14 86.2 °F /  30.1 °C 77.3 °F /  25.2 °C 29.77 in /  1008 hPa SE 5.1 mph /  8.2 km/h 8.1 mph /  13 km/h 75 % 0.00 in /  0 mm
17:19 86.1 °F /  30.1 °C 77.2 °F /  25.1 °C 29.77 in /  1008 hPa SSW 1.9 mph /  3.1 km/h 5.0 mph /  8 km/h 75 % 0.00 in /  0 mm
17:24 86.1 °F /  30.1 °C 77.2 °F /  25.1 °C 29.76 in /  1007.7 hPa South 3.6 mph /  5.8 km/h 6.0 mph /  9.7 km/h 75 % 0.00 in /  0 mm
17:29 85.9 °F /  29.9 °C 77.1 °F /  25.1 °C 29.76 in /  1007.7 hPa South 5.4 mph /  8.7 km/h 10.4 mph /  16.7 km/h 75 % 0.00 in /  0 mm
17:34 85.9 °F /  29.9 °C 77.1 °F /  25.1 °C 29.76 in /  1007.7 hPa South 3.8 mph /  6.1 km/h 6.9 mph /  11.1 km/h 75 % 0.00 in /  0 mm
17:39 85.8 °F /  29.9 °C 76.5 °F /  24.7 °C 29.76 in /  1007.7 hPa SSW 3.5 mph /  5.6 km/h 6.9 mph /  11.1 km/h 74 % 0.00 in /  0 mm
17:44 85.8 °F /  29.9 °C 77.0 °F /  25 °C 29.76 in /  1007.7 hPa SE 1.5 mph /  2.4 km/h 4.6 mph /  7.4 km/h 75 % 0.00 in /  0 mm
17:50 85.7 °F /  29.8 °C 76.9 °F /  24.9 °C 29.75 in /  1007.3 hPa SW 3.3 mph /  5.3 km/h 5.0 mph /  8 km/h 75 % 0.00 in /  0 mm
17:55 85.5 °F /  29.7 °C 76.7 °F /  24.8 °C 29.75 in /  1007.3 hPa SSW 1.2 mph /  1.9 km/h 4.6 mph /  7.4 km/h 75 % 0.00 in /  0 mm
18:00 85.3 °F /  29.6 °C 76.5 °F /  24.7 °C 29.75 in /  1007.3 hPa SSW 3.7 mph /  6 km/h 5.8 mph /  9.3 km/h 75 % 0.00 in /  0 mm
18:05 85.1 °F /  29.5 °C 76.7 °F /  24.8 °C 29.75 in /  1007.3 hPa SE 2.2 mph /  3.5 km/h 8.1 mph /  13 km/h 76 % 0.00 in /  0 mm
18:10 84.9 °F /  29.4 °C 76.5 °F /  24.7 °C 29.74 in /  1007 hPa West 2.4 mph /  3.9 km/h 8.1 mph /  13 km/h 76 % 0.00 in /  0 mm
18:15 84.7 °F /  29.3 °C 76.3 °F /  24.6 °C 29.74 in /  1007 hPa South 0.9 mph /  1.4 km/h 3.5 mph /  5.6 km/h 76 % 0.00 in /  0 mm
18:20 84.4 °F /  29.1 °C 76.4 °F /  24.7 °C 29.74 in /  1007 hPa South 3.7 mph /  6 km/h 5.0 mph /  8 km/h 77 % 0.00 in /  0 mm
18:25 84.2 °F /  29 °C 76.2 °F /  24.6 °C 29.74 in /  1007 hPa SSW 2.0 mph /  3.2 km/h 5.0 mph /  8 km/h 77 % 0.00 in /  0 mm
18:30 83.9 °F /  28.8 °C 76.3 °F /  24.6 °C 29.74 in /  1007 hPa SSW 1.4 mph /  2.3 km/h 3.5 mph /  5.6 km/h 78 % 0.00 in /  0 mm
18:35 83.7 °F /  28.7 °C 76.1 °F /  24.5 °C 29.74 in /  1007 hPa SSW 3.6 mph /  5.8 km/h 6.9 mph /  11.1 km/h 78 % 0.00 in /  0 mm
18:40 83.4 °F /  28.6 °C 76.2 °F /  24.6 °C 29.74 in /  1007 hPa SSW 3.0 mph /  4.8 km/h 6.0 mph /  9.7 km/h 79 % 0.00 in /  0 mm
18:45 83.1 °F /  28.4 °C 75.9 °F /  24.4 °C 29.74 in /  1007 hPa SSE 2.1 mph /  3.4 km/h 5.0 mph /  8 km/h 79 % 0.00 in /  0 mm
18:50 82.9 °F /  28.3 °C 75.7 °F /  24.3 °C 29.74 in /  1007 hPa SSW 1.6 mph /  2.6 km/h 3.5 mph /  5.6 km/h 79 % 0.00 in /  0 mm
18:55 82.7 °F /  28.2 °C 75.9 °F /  24.4 °C 29.74 in /  1007 hPa SSW 2.4 mph /  3.9 km/h 3.5 mph /  5.6 km/h 80 % 0.00 in /  0 mm
19:00 82.6 °F /  28.1 °C 75.8 °F /  24.3 °C 29.74 in /  1007 hPa SSW 2.7 mph /  4.3 km/h 5.8 mph /  9.3 km/h 80 % 0.00 in /  0 mm
19:05 82.4 °F /  28 °C 75.6 °F /  24.2 °C 29.74 in /  1007 hPa South 1.8 mph /  2.9 km/h 5.8 mph /  9.3 km/h 80 % 0.00 in /  0 mm
19:10 82.3 °F /  27.9 °C 75.9 °F /  24.4 °C 29.74 in /  1007 hPa SSW 4.6 mph /  7.4 km/h 7.0 mph /  11.3 km/h 81 % 0.00 in /  0 mm
19:16 82.2 °F /  27.9 °C 75.8 °F /  24.3 °C 29.74 in /  1007 hPa SSW 3.0 mph /  4.8 km/h 6.0 mph /  9.7 km/h 81 % 0.00 in /  0 mm
19:21 82.1 °F /  27.8 °C 75.7 °F /  24.3 °C 29.74 in /  1007 hPa SSW 3.0 mph /  4.8 km/h 9.0 mph /  14.5 km/h 81 % 0.00 in /  0 mm
19:26 81.9 °F /  27.7 °C 75.5 °F /  24.2 °C 29.74 in /  1007 hPa SSW 2.7 mph /  4.3 km/h 6.0 mph /  9.7 km/h 81 % 0.00 in /  0 mm
19:31 81.8 °F /  27.7 °C 75.4 °F /  24.1 °C 29.74 in /  1007 hPa South 2.0 mph /  3.2 km/h 6.0 mph /  9.7 km/h 81 % 0.00 in /  0 mm
19:36 81.6 °F /  27.6 °C 75.6 °F /  24.2 °C 29.74 in /  1007 hPa SSW 5.0 mph /  8 km/h 12.0 mph /  19.3 km/h 82 % 0.00 in /  0 mm
19:41 81.4 °F /  27.4 °C 75.4 °F /  24.1 °C 29.74 in /  1007 hPa SSW 2.9 mph /  4.7 km/h 6.9 mph /  11.1 km/h 82 % 0.00 in /  0 mm
19:46 81.3 °F /  27.4 °C 75.3 °F /  24.1 °C 29.74 in /  1007 hPa South 3.6 mph /  5.8 km/h 5.8 mph /  9.3 km/h 82 % 0.00 in /  0 mm
19:51 81.2 °F /  27.3 °C 75.2 °F /  24 °C 29.74 in /  1007 hPa South 3.3 mph /  5.3 km/h 6.9 mph /  11.1 km/h 82 % 0.00 in /  0 mm
19:56 81.0 °F /  27.2 °C 75.0 °F /  23.9 °C 29.74 in /  1007 hPa SSW 3.6 mph /  5.8 km/h 8.1 mph /  13 km/h 82 % 0.00 in /  0 mm
20:01 80.8 °F /  27.1 °C 75.2 °F /  24 °C 29.73 in /  1006.7 hPa South 2.8 mph /  4.5 km/h 6.9 mph /  11.1 km/h 83 % 0.00 in /  0 mm
20:06 80.7 °F /  27.1 °C 75.1 °F /  23.9 °C 29.73 in /  1006.7 hPa WSW 2.3 mph /  3.7 km/h 5.8 mph /  9.3 km/h 83 % 0.00 in /  0 mm
20:11 80.5 °F /  26.9 °C 74.9 °F /  23.8 °C 29.73 in /  1006.7 hPa SSW 1.5 mph /  2.4 km/h 3.5 mph /  5.6 km/h 83 % 0.00 in /  0 mm
20:16 80.4 °F /  26.9 °C 74.8 °F /  23.8 °C 29.73 in /  1006.7 hPa SSW 2.2 mph /  3.5 km/h 4.6 mph /  7.4 km/h 83 % 0.00 in /  0 mm
20:21 80.3 °F /  26.8 °C 74.7 °F /  23.7 °C 29.73 in /  1006.7 hPa SE 2.6 mph /  4.2 km/h 6.9 mph /  11.1 km/h 83 % 0.00 in /  0 mm
20:26 80.1 °F /  26.7 °C 74.8 °F /  23.8 °C 29.73 in /  1006.7 hPa South 1.9 mph /  3.1 km/h 5.8 mph /  9.3 km/h 84 % 0.00 in /  0 mm
20:31 80.0 °F /  26.7 °C 74.7 °F /  23.7 °C 29.73 in /  1006.7 hPa SSW 2.2 mph /  3.5 km/h 4.0 mph /  6.4 km/h 84 % 0.00 in /  0 mm
20:36 79.9 °F /  26.6 °C 74.6 °F /  23.7 °C 29.73 in /  1006.7 hPa SE 1.5 mph /  2.4 km/h 5.0 mph /  8 km/h 84 % 0.00 in /  0 mm
20:41 79.8 °F /  26.6 °C 74.5 °F /  23.6 °C 29.72 in /  1006.3 hPa SSE 1.0 mph /  1.6 km/h 3.5 mph /  5.6 km/h 84 % 0.00 in /  0 mm
20:46 79.7 °F /  26.5 °C 74.4 °F /  23.6 °C 29.72 in /  1006.3 hPa SSW 0.3 mph /  0.5 km/h 3.5 mph /  5.6 km/h 84 % 0.00 in /  0 mm
20:51 79.6 °F /  26.4 °C 74.3 °F /  23.5 °C 29.73 in /  1006.7 hPa SE 1.5 mph /  2.4 km/h 4.0 mph /  6.4 km/h 84 % 0.00 in /  0 mm
20:56 79.5 °F /  26.4 °C 74.2 °F /  23.4 °C 29.72 in /  1006.3 hPa SSW 3.2 mph /  5.1 km/h 5.8 mph /  9.3 km/h 84 % 0.00 in /  0 mm
21:01 79.4 °F /  26.3 °C 74.1 °F /  23.4 °C 29.71 in /  1006 hPa SSW 3.0 mph /  4.8 km/h 5.0 mph /  8 km/h 84 % 0.00 in /  0 mm
21:06 79.3 °F /  26.3 °C 74.0 °F /  23.3 °C 29.71 in /  1006 hPa ESE 1.3 mph /  2.1 km/h 3.5 mph /  5.6 km/h 84 % 0.00 in /  0 mm
21:11 79.2 °F /  26.2 °C 73.9 °F /  23.3 °C 29.71 in /  1006 hPa NW 1.5 mph /  2.4 km/h 4.0 mph /  6.4 km/h 84 % 0.00 in /  0 mm
21:16 79.2 °F /  26.2 °C 73.9 °F /  23.3 °C 29.71 in /  1006 hPa SSW 3.1 mph /  5 km/h 9.2 mph /  14.8 km/h 84 % 0.00 in /  0 mm
21:21 79.1 °F /  26.2 °C 73.8 °F /  23.2 °C 29.70 in /  1005.6 hPa SSW 2.8 mph /  4.5 km/h 5.0 mph /  8 km/h 84 % 0.00 in /  0 mm
21:26 79.0 °F /  26.1 °C 74.1 °F /  23.4 °C 29.70 in /  1005.6 hPa SSW 1.8 mph /  2.9 km/h 4.6 mph /  7.4 km/h 85 % 0.00 in /  0 mm
21:31 78.9 °F /  26.1 °C 74.0 °F /  23.3 °C 29.70 in /  1005.6 hPa South 1.0 mph /  1.6 km/h 4.6 mph /  7.4 km/h 85 % 0.00 in /  0 mm
21:36 78.9 °F /  26.1 °C 74.0 °F /  23.3 °C 29.71 in /  1006 hPa South 2.9 mph /  4.7 km/h 4.0 mph /  6.4 km/h 85 % 0.00 in /  0 mm
21:41 78.9 °F /  26.1 °C 74.0 °F /  23.3 °C 29.71 in /  1006 hPa SSW 2.1 mph /  3.4 km/h 8.1 mph /  13 km/h 85 % 0.00 in /  0 mm
21:46 78.8 °F /  26 °C 73.9 °F /  23.3 °C 29.71 in /  1006 hPa SSW 3.4 mph /  5.5 km/h 6.9 mph /  11.1 km/h 85 % 0.00 in /  0 mm
21:52 78.7 °F /  25.9 °C 74.2 °F /  23.4 °C 29.71 in /  1006 hPa South 1.7 mph /  2.7 km/h 3.5 mph /  5.6 km/h 86 % 0.00 in /  0 mm
21:57 78.7 °F /  25.9 °C 74.2 °F /  23.4 °C 29.71 in /  1006 hPa SSW 3.4 mph /  5.5 km/h 4.6 mph /  7.4 km/h 86 % 0.00 in /  0 mm
22:02 78.7 °F /  25.9 °C 74.2 °F /  23.4 °C 29.71 in /  1006 hPa SSW 4.2 mph /  6.8 km/h 6.9 mph /  11.1 km/h 86 % 0.00 in /  0 mm
22:07 78.7 °F /  25.9 °C 74.2 °F /  23.4 °C 29.70 in /  1005.6 hPa South 2.6 mph /  4.2 km/h 4.6 mph /  7.4 km/h 86 % 0.00 in /  0 mm
22:12 78.7 °F /  25.9 °C 74.2 °F /  23.4 °C 29.70 in /  1005.6 hPa SSW 2.9 mph /  4.7 km/h 6.9 mph /  11.1 km/h 86 % 0.00 in /  0 mm
22:17 78.7 °F /  25.9 °C 74.2 °F /  23.4 °C 29.70 in /  1005.6 hPa SSW 4.6 mph /  7.4 km/h 8.0 mph /  12.9 km/h 86 % 0.00 in /  0 mm
22:22 78.7 °F /  25.9 °C 74.2 °F /  23.4 °C 29.69 in /  1005.3 hPa SSW 1.7 mph /  2.7 km/h 4.6 mph /  7.4 km/h 86 % 0.00 in /  0 mm
22:27 78.7 °F /  25.9 °C 74.2 °F /  23.4 °C 29.69 in /  1005.3 hPa SSW 3.5 mph /  5.6 km/h 6.9 mph /  11.1 km/h 86 % 0.00 in /  0 mm
22:32 78.7 °F /  25.9 °C 74.2 °F /  23.4 °C 29.69 in /  1005.3 hPa South 1.8 mph /  2.9 km/h 4.0 mph /  6.4 km/h 86 % 0.00 in /  0 mm
22:37 78.6 °F /  25.9 °C 74.4 °F /  23.6 °C 29.69 in /  1005.3 hPa South 1.1 mph /  1.8 km/h 3.5 mph /  5.6 km/h 87 % 0.00 in /  0 mm
22:42 78.7 °F /  25.9 °C 74.5 °F /  23.6 °C 29.69 in /  1005.3 hPa South 3.7 mph /  6 km/h 9.2 mph /  14.8 km/h 87 % 0.00 in /  0 mm
22:47 78.6 °F /  25.9 °C 74.4 °F /  23.6 °C 29.69 in /  1005.3 hPa SW 2.1 mph /  3.4 km/h 3.5 mph /  5.6 km/h 87 % 0.00 in /  0 mm
22:52 78.5 °F /  25.8 °C 74.6 °F /  23.7 °C 29.69 in /  1005.3 hPa SSE 2.1 mph /  3.4 km/h 4.6 mph /  7.4 km/h 88 % 0.00 in /  0 mm
22:57 78.6 °F /  25.9 °C 74.7 °F /  23.7 °C 29.70 in /  1005.6 hPa South 4.4 mph /  7.1 km/h 10.4 mph /  16.7 km/h 88 % 0.00 in /  0 mm
23:02 78.5 °F /  25.8 °C 74.6 °F /  23.7 °C 29.70 in /  1005.6 hPa South 2.8 mph /  4.5 km/h 3.5 mph /  5.6 km/h 88 % 0.00 in /  0 mm
23:07 78.5 °F /  25.8 °C 74.6 °F /  23.7 °C 29.70 in /  1005.6 hPa South 3.2 mph /  5.1 km/h 8.1 mph /  13 km/h 88 % 0.00 in /  0 mm
23:12 78.5 °F /  25.8 °C 74.6 °F /  23.7 °C 29.70 in /  1005.6 hPa SSW 4.2 mph /  6.8 km/h 7.0 mph /  11.3 km/h 88 % 0.00 in /  0 mm
23:17 78.5 °F /  25.8 °C 74.6 °F /  23.7 °C 29.70 in /  1005.6 hPa SSW 5.7 mph /  9.2 km/h 10.4 mph /  16.7 km/h 88 % 0.00 in /  0 mm
23:22 78.5 °F /  25.8 °C 74.6 °F /  23.7 °C 29.70 in /  1005.6 hPa South 2.0 mph /  3.2 km/h 15.0 mph /  24.1 km/h 88 % 0.00 in /  0 mm
23:28 78.5 °F /  25.8 °C 75.0 °F /  23.9 °C 29.70 in /  1005.6 hPa WSW 4.9 mph /  7.9 km/h 9.0 mph /  14.5 km/h 89 % 0.00 in /  0 mm
23:33 78.4 °F /  25.8 °C 74.9 °F /  23.8 °C 29.71 in /  1006 hPa South 2.6 mph /  4.2 km/h 11.5 mph /  18.5 km/h 89 % 0.01 in /  0.25 mm
23:38 78.3 °F /  25.7 °C 75.1 °F /  23.9 °C 29.71 in /  1006 hPa SW 5.6 mph /  9 km/h 8.0 mph /  12.9 km/h 90 % 0.03 in /  0.76 mm
23:44 78.1 °F /  25.6 °C 74.9 °F /  23.8 °C 29.71 in /  1006 hPa SSW 1.6 mph /  2.6 km/h 5.8 mph /  9.3 km/h 90 % 0.04 in /  1.02 mm
23:49 77.9 °F /  25.5 °C 74.7 °F /  23.7 °C 29.72 in /  1006.3 hPa WSW 5.1 mph /  8.2 km/h 9.0 mph /  14.5 km/h 90 % 0.04 in /  1.02 mm
23:54 77.7 °F /  25.4 °C 74.9 °F /  23.8 °C 29.73 in /  1006.7 hPa SSE 5.1 mph /  8.2 km/h 7.0 mph /  11.3 km/h 91 % 0.05 in /  1.27 mm
23:59 77.4 °F /  25.2 °C 74.2 °F /  23.4 °C 29.73 in /  1006.7 hPa SSW 5.6 mph /  9 km/h 10.4 mph /  16.7 km/h 90 % 0.06 in /  1.52 mm
Crab Meadow Weather
Compliments of Weather Underground - 3 mb

Script developed by  Jim McMurry - jmcmurry@mwt.net Adapted for the template by  Wim van der Kuil - Leuven-Template.eu

Astronomy: Our moon is moving away from the earth at about 3cm per year.